Home > Weather > Glyfada > Past weeks

Flag for Greece Past Weather in Glyfada, Greece — Yesterday and Last 2 Weeks

Now
90 °F

Sunny.


Feels Like: 87 °F
Forecast: 78 / 92 °F
Wind: 26 mph from Northeast

Location: Eleftherios Venizelos International Airport

Current Time: Jul 29, 2016 at 5:04:15 PM

Latest Report: Jul 29, 2016 at 4:20 PM


Visibility: 10 mi

Pressure: 29.83 "Hg

Humidity: 29%

Dew Point: 54 °F

Location of GlyfadaLocation

Past Weather in Glyfada — Graph

°F

Glyfada Temperature Yesterday

Maximum temperature yesterday: 90 °F (at 1:20 PM)
Minimum temperature yesterday: 79 °F (at 12:50 AM)
Average temperature yesterday: 84 °F

High & Low Weather Summary for the Past Weeks

 TemperatureHumidityPressure
High95 °F (Jul 15, 1:20 PM)88% (Jul 16, 5:50 AM)29.98 "Hg (Jul 16, 5:50 AM)
Low64 °F (Jul 23, 2:50 AM)17% (Jul 16, 3:20 PM)29.71 "Hg (Jul 15, 6:20 PM)
Average82 °F39%29.86 "Hg
* Reported Jul 14 3:20 PM — Jul 29 3:50 PM, Glyfada, Weather by CustomWeather, © 2016

Note: Actual official high and low records may vary slightly from our data, if they occured in-between our weather recording intervals... More about our weather records

Advertising

Glyfada Weather History for the Previous 24 Hours

Scroll right to see more
 ConditionsComfort  
Time TempWeatherWind HumidityBarometerVisibility
3:50 PM
Fri, Jul 29
88 °FSunny.24 mph33%29.83 "Hg10 mi
3:20 PM88 °FSunny.21 mph33%29.83 "Hg10 mi
2:50 PM90 °FSunny.24 mph31%29.83 "Hg10 mi
2:20 PM88 °FSunny.25 mph33%29.83 "Hg10 mi
1:50 PM88 °FSunny.23 mph33%29.83 "Hg10 mi
1:20 PM88 °FSunny.24 mph33%29.83 "Hg10 mi
12:50 PM88 °FSunny.22 mph33%29.83 "Hg10 mi
12:20 PM88 °FSunny.20 mph33%29.83 "Hg10 mi
11:50 AM88 °FSunny.21 mph33%29.83 "Hg10 mi
11:20 AM86 °FSunny.18 mph38%29.83 "Hg10 mi
10:50 AM86 °FSunny.16 mph38%29.86 "Hg10 mi
10:20 AM86 °FSunny.17 mph38%29.86 "Hg10 mi
9:50 AM84 °FPassing clouds.12 mph40%29.86 "HgN/A
9:20 AM84 °FSunny.14 mph37%29.86 "Hg10 mi
8:50 AM84 °FSunny.12 mph35%29.83 "Hg10 mi
8:20 AM82 °FPassing clouds.6 mph37%29.83 "HgN/A
7:50 AM81 °FSunny.2 mph39%29.83 "Hg10 mi
7:20 AM77 °FClear.1 mph44%29.83 "Hg10 mi
6:50 AM75 °FClear.3 mph47%29.83 "Hg10 mi
6:20 AM77 °FClear.2 mph47%29.83 "Hg10 mi
5:50 AM77 °FClear.5 mph47%29.83 "Hg10 mi
5:20 AM77 °FClear.7 mph47%29.83 "Hg10 mi
4:50 AM79 °FClear.6 mph45%29.83 "Hg10 mi
4:20 AM77 °FClear.7 mph47%29.83 "Hg10 mi
3:50 AM81 °FClear.8 mph42%29.83 "Hg10 mi
3:20 AM81 °FClear.9 mph42%29.83 "Hg10 mi
2:50 AM81 °FClear.8 mph42%29.86 "Hg10 mi
2:20 AM81 °FClear.10 mph42%29.86 "Hg10 mi
1:50 AM81 °FClear.12 mph42%29.86 "Hg10 mi
1:20 AM82 °FClear.12 mph40%29.86 "Hg10 mi
12:50 AM82 °FClear.12 mph37%29.86 "Hg10 mi
12:20 AM79 °FClear.6 mph39%29.86 "Hg10 mi
11:50 PM
Thu, Jul 28
81 °FClear.7 mph37%29.86 "Hg10 mi
11:20 PM81 °FClear.5 mph39%29.86 "Hg10 mi
10:50 PM81 °FClear.7 mph39%29.86 "Hg10 mi
10:20 PM82 °FClear.7 mph32%29.86 "Hg10 mi
9:50 PM82 °FClear.6 mph30%29.86 "Hg10 mi
8:50 PM84 °FSunny.8 mph29%29.86 "Hg10 mi
8:20 PM84 °FSunny.12 mph29%29.86 "Hg10 mi
7:50 PM86 °FSunny.15 mph27%29.86 "Hg10 mi
7:20 PM88 °FSunny.16 mph24%29.86 "Hg10 mi
6:50 PM88 °FSunny.18 mph24%29.86 "Hg10 mi
6:20 PM88 °FSunny.20 mph24%29.86 "Hg10 mi
5:50 PM90 °FSunny.21 mph24%29.86 "Hg10 mi
5:20 PM90 °FSunny.21 mph26%29.86 "Hg10 mi
Weather by CustomWeather, © 2016

See weather overviewHow to use our weather pages